map of STL home
Great Circle Mapper logo
STL - Airport
Location
City:  St. Louis, Missouri, United States
Name:Lambert-St. Louis International Airport
ICAO / IATA:KSTL / STL
FAA:STL

Details
Type:Airport (Part 139 Class I)
Use:Public/Civil, International (customs landing rights)
Latitude:3844'55"N (38.748697)
Longitude:9022'12"W (-90.370028)
Datum:WGS 1984
Elevation:618 ft (188 m)
Runways:4
Longest:11019 × 200 ft (3359 × 61 m), paved

Time
Time Zone:UTC-6 (DST-5)
Local Time:

Weather
METAR:KSTL 030351Z 22003KT 10SM FEW200 23/19 A3002 RMK AO2 SLP157 T02280194
TAF:KSTL 030306Z 0303/0406 00000KT P6SM FEW200
FM031000 VRB02KT 4SM BR SKC
FM031400 16008KT P6SM SCT040

Related Locations
Nearby:
Farthest:MGV: 10988 mi / 17684 km
Margaret River, WA, AU

Find:

   beyond  
but within

Other Information
Maps:
Delays:
NOTAMs:
Links:
Sources:

  
flag of United States
flag of Missouri
flag of St. Louis
  

Airport Diagram

Airport diagram for STL

Airport diagram PDF

Sectional Chart

Flight Planning
at skyvector.com

Satellite Image

Google Maps Satellite View

 

Copyright © 2004-2014 Karl L. Swartz. All rights reserved.
The Great Circle Mapper name and logo are trademarks of the Great Circle Mapper.
All other trademarks mentioned herein belong to their respective owners.
Please see credits for attibutions and further copyright information.

  Follow gcmap on Facebook Follow gcmap on Twitter

hCard Microformat

Geo Microformat